Skip Page Navigation
NASA JPL Caltech
NASA Logo - Jet Propulsion Laboratory + View the NASA Portal
+ Center for Near-Earth Object Studies
JPL Home Earth Solar System Stars & Galaxies Technology
JPL Solar System Dynamics
BODIES ORBITS EPHEMERIDES TOOLS PHYSICAL DATA DISCOVERY FAQ SITE MAP
JPL Small-Body Database Browser
Search: [ help ]  
192115 (2006 DG2)
Classification: Main-belt Asteroid          SPK-ID: 2192115
Ephemeris | Orbit Diagram | Orbital Elements | Mission Design | Physical Parameters | Discovery Circumstances ]

[ show orbit diagram ]
Orbital Elements at Epoch 2459200.5 (2020-Dec-17.0) TDB
Reference: JPL 19 (heliocentric ecliptic J2000)
 Element Value Uncertainty (1-sigma)   Units 
e .08579709194226734 4.6623e-08  
a 2.777441019667603 2.2203e-08 au
q 2.539144657138956 1.3271e-07 au
i 1.833629827403013 6.0182e-06 deg
node 158.2201428338947 0.00014888 deg
peri 267.2184678021305 0.00015317 deg
M 152.7797673689635 3.5364e-05 deg
tp 2458482.988215461127
(2018-Dec-30.48821546)
0.00016499 TDB
period 1690.696660181377
4.63
2.0274e-05
5.551e-08
d
yr
n .2129299764284028 2.5533e-09 deg/d
Q 3.015737382196249 2.4108e-08 au
  Orbit Determination Parameters
   # obs. used (total)      332  
   data-arc span      8747 days (23.95 yr)  
   first obs. used      1997-03-07  
   last obs. used      2021-02-16  
   planetary ephem.      DE441  
   SB-pert. ephem.      SB441-N16  
   condition code      0  
   norm. resid. RMS      .5459  
   source      ORB  
   producer      Otto Matic  
   solution date      2021-Apr-13 22:14:44  

Additional Information
 Earth MOID = 1.55286 au 
 Jupiter MOID = 2.21856 au 
 T_jup = 3.329 
[ show covariance matrix ]

Ephemeris | Orbit Diagram | Orbital Elements | Mission Design | Physical Parameters | Discovery Circumstances ]

Physical Parameter Table
Parameter Symbol Value Units Sigma Reference Notes
absolute magnitude H 16.68   n/a E2021B55  

192115 (2006 DG2)          Discovered 2006-Feb-20 by Spacewatch at Kitt Peak
Reference: 20080917/Numbers.arcLast Updated: 2008-09-19

Alternate Designations
 2006 DG2 = 1997 EY29 
Ephemeris | Orbit Diagram | Orbital Elements | Mission Design | Physical Parameters | Discovery Circumstances ]
ABOUT SSD CREDITS/AWARDS PRIVACY/COPYRIGHT GLOSSARY LINKS
FirstGov 2021-May-17 22:21 UT
(server date/time)  
NASA Home Page
Site Manager:   Ryan S. Park
Webmaster  Alan B. Chamberlin